Location: Austin
(30.3000°N, 97.7500°W)
Time: 22:56:07
(UTC-06:00)

SL-16 R/B - Pass Details

Date: 03 December 2025
Orbit: 985 x 1006 km, 99.8° (Epoch: 07 December)

Event Time Altitude Azimuth Distance (km) Brightness Sun altitude
Rises 04:02:01 0° 157° (SSE) 3,711 5.8 -40.2°
Reaches altitude 10° 04:04:29 10° 155° (SSE) 2,766 5.1 -39.7°
Enters shadow 04:06:36 23° 151° (SSE) 1,995 4.3 -39.2°
